• In Netherlands
  • List of Countries
  • For 7 days
  • Water Temperature
  • Satellite Maps
  • Weather Map
  • Weather Widgets
  • user-avatar
    Login

    Hourly Weather Porto-Novo

    Today, 28 June, Wednesday

    Time Temperature Precipitation Wind Pressure Humidity
    00:00 +27°C° 0 mm 3 mps 759 mmHg 88%
    01:00 +27°C° 0 mm 3 mps 759 mmHg 89%
    02:00 +27°C° 0 mm 2 mps 759 mmHg 90%
    03:00 +27°C° 0 mm 2 mps 759 mmHg 90%
    04:00 +27°C° 0.1 mm 2 mps 759 mmHg 91%
    05:00 +27°C° 0.1 mm 2 mps 759 mmHg 91%
    06:00 +27°C° 0 mm 2 mps 760 mmHg 89%
    07:00 +28°C° 0.2 mm 2 mps 760 mmHg 82%
    08:00 +30°C° 0.2 mm 2 mps 760 mmHg 74%
    09:00 +31°C° 0.2 mm 2 mps 760 mmHg 67%
    10:00 +32°C° 0.2 mm 2 mps 760 mmHg 64%
    11:00 +32°C° 0.2 mm 2 mps 760 mmHg 61%
    12:00 +34°C° 0.2 mm 3 mps 760 mmHg 58%
    13:00 +34°C° 0.2 mm 3 mps 759 mmHg 59%
    14:00 +34°C° 0.2 mm 3 mps 758 mmHg 60%
    15:00 +34°C° 0.2 mm 3 mps 758 mmHg 61%
    16:00 +32°C° 0.6 mm 4 mps 758 mmHg 67%
    17:00 +30°C° 0.6 mm 4 mps 758 mmHg 72%
    18:00 +29°C° 0.6 mm 4 mps 758 mmHg 78%
    19:00 +28°C° 0 mm 4 mps 759 mmHg 80%
    20:00 +28°C° 0 mm 4 mps 759 mmHg 81%
    21:00 +28°C° 0 mm 4 mps 759 mmHg 83%
    22:00 +28°C° 0 mm 4 mps 759 mmHg 84%
    23:00 +27°C° 0 mm 4 mps 759 mmHg 84%

    Tomorrow, 29 June, Thursday

    Time Temperature Precipitation Wind Pressure Humidity
    00:00 +27°C° 0 mm 4 mps 759 mmHg 85%
    01:00 +27°C° 0 mm 3 mps 759 mmHg 86%
    02:00 +27°C° 0 mm 3 mps 759 mmHg 87%
    03:00 +27°C° 0 mm 3 mps 759 mmHg 87%
    04:00 +27°C° 0 mm 3 mps 759 mmHg 87%
    05:00 +27°C° 0 mm 2 mps 759 mmHg 87%
    06:00 +27°C° 0 mm 2 mps 759 mmHg 86%
    07:00 +28°C° 0.1 mm 2 mps 760 mmHg 83%
    08:00 +29°C° 0.1 mm 2 mps 760 mmHg 80%
    09:00 +29°C° 0.1 mm 2 mps 761 mmHg 77%
    10:00 +31°C° 0.1 mm 3 mps 760 mmHg 70%
    11:00 +33°C° 0.1 mm 3 mps 760 mmHg 64%
    12:00 +35°C° 0.1 mm 3 mps 759 mmHg 57%
    13:00 +34°C° 0.3 mm 4 mps 759 mmHg 59%
    14:00 +34°C° 0.3 mm 4 mps 758 mmHg 61%
    15:00 +33°C° 0.3 mm 4 mps 757 mmHg 63%
    16:00 +32°C° 0.1 mm 4 mps 758 mmHg 69%
    17:00 +30°C° 0.1 mm 4 mps 758 mmHg 74%
    18:00 +28°C° 0.1 mm 4 mps 758 mmHg 79%
    19:00 +28°C° 0 mm 4 mps 759 mmHg 81%
    20:00 +28°C° 0 mm 4 mps 759 mmHg 82%
    21:00 +28°C° 0 mm 4 mps 760 mmHg 84%
    22:00 +27°C° 0 mm 4 mps 760 mmHg 84%
    23:00 +27°C° 0 mm 3 mps 760 mmHg 85%

    Day after tomorrow, 30 June, Friday

    Time Temperature Precipitation Wind Pressure Humidity
    00:00 +27°C° 0 mm 3 mps 760 mmHg 85%
    01:00 +27°C° 0 mm 3 mps 760 mmHg 86%
    02:00 +27°C° 0 mm 3 mps 759 mmHg 87%
    03:00 +27°C° 0 mm 3 mps 759 mmHg 88%
    04:00 +27°C° 0.5 mm 3 mps 759 mmHg 88%
    05:00 +26°C° 0.5 mm 2 mps 759 mmHg 88%
    06:00 +26°C° 0.5 mm 2 mps 759 mmHg 89%
    07:00 +28°C° 0.6 mm 2 mps 760 mmHg 81%
    08:00 +29°C° 0.6 mm 3 mps 761 mmHg 74%
    09:00 +31°C° 0.6 mm 3 mps 761 mmHg 67%
    10:00 +31°C° 1.6 mm 3 mps 761 mmHg 68%
    11:00 +31°C° 1.6 mm 3 mps 760 mmHg 69%
    12:00 +31°C° 1.6 mm 3 mps 760 mmHg 71%
    13:00 +32°C° 0.4 mm 4 mps 759 mmHg 69%
    14:00 +32°C° 0.4 mm 4 mps 758 mmHg 67%
    15:00 +32°C° 0.4 mm 5 mps 758 mmHg 65%
    16:00 +30°C° 0.1 mm 4 mps 758 mmHg 70%
    17:00 +29°C° 0.1 mm 4 mps 758 mmHg 75%
    18:00 +28°C° 0.1 mm 4 mps 758 mmHg 79%
    19:00 +28°C° 0 mm 4 mps 759 mmHg 81%
    20:00 +28°C° 0 mm 4 mps 760 mmHg 82%
    21:00 +27°C° 0 mm 4 mps 760 mmHg 84%
    22:00 +27°C° 0 mm 4 mps 760 mmHg 85%
    23:00 +27°C° 0 mm 4 mps 760 mmHg 85%

    1 July, Saturday

    Time Temperature Precipitation Wind Pressure Humidity
    00:00 +27°C° 0 mm 4 mps 759 mmHg 86%
    01:00 +27°C° 0 mm 4 mps 759 mmHg 86%
    02:00 +27°C° 0 mm 4 mps 759 mmHg 86%
    03:00 +27°C° 0 mm 3 mps 759 mmHg 86%
    04:00 +27°C° 0.4 mm 3 mps 759 mmHg 88%
    05:00 +26°C° 0.4 mm 3 mps 759 mmHg 89%
    06:00 +26°C° 0.4 mm 3 mps 760 mmHg 90%
    07:00 +27°C° 0.7 mm 3 mps 760 mmHg 88%
    08:00 +27°C° 0.7 mm 3 mps 761 mmHg 85%
    09:00 +28°C° 0.7 mm 3 mps 761 mmHg 83%
    10:00 +28°C° 0.9 mm 3 mps 760 mmHg 82%
    11:00 +29°C° 0.9 mm 4 mps 760 mmHg 80%
    12:00 +29°C° 0.9 mm 4 mps 760 mmHg 79%
    13:00 +29°C° 0.7 mm 4 mps 759 mmHg 80%
    14:00 +29°C° 0.7 mm 4 mps 758 mmHg 81%
    15:00 +29°C° 0.7 mm 4 mps 758 mmHg 81%
    16:00 +28°C° 0.1 mm 4 mps 758 mmHg 83%
    17:00 +28°C° 0.1 mm 4 mps 758 mmHg 85%
    18:00 +27°C° 0.1 mm 3 mps 758 mmHg 87%
    19:00 +27°C° 0 mm 3 mps 759 mmHg 88%
    20:00 +27°C° 0 mm 3 mps 759 mmHg 89%
    21:00 +27°C° 0 mm 3 mps 760 mmHg 91%
    22:00 +26°C° 0 mm 3 mps 760 mmHg 90%
    23:00 +26°C° 0 mm 3 mps 759 mmHg 90%

    2 July, Sunday

    Time Temperature Precipitation Wind Pressure Humidity
    00:00 +26°C° 0 mm 3 mps 759 mmHg 90%
    01:00 +26°C° 0 mm 3 mps 759 mmHg 90%
    02:00 +26°C° 0 mm 3 mps 759 mmHg 91%
    03:00 +26°C° 0 mm 3 mps 758 mmHg 91%
    04:00 +26°C° 0 mm 3 mps 758 mmHg 90%
    05:00 +26°C° 0 mm 3 mps 759 mmHg 90%
    06:00 +27°C° 0 mm 3 mps 759 mmHg 90%
    07:00 +27°C° 0.1 mm 3 mps 760 mmHg 89%
    08:00 +27°C° 0.1 mm 3 mps 760 mmHg 88%
    09:00 +27°C° 0.1 mm 3 mps 761 mmHg 87%
    10:00 +28°C° 0.2 mm 3 mps 760 mmHg 85%
    11:00 +28°C° 0.2 mm 3 mps 760 mmHg 83%
    12:00 +29°C° 0.2 mm 4 mps 759 mmHg 81%
    13:00 +29°C° 0.3 mm 4 mps 759 mmHg 79%
    14:00 +29°C° 0.3 mm 4 mps 758 mmHg 78%
    15:00 +29°C° 0.3 mm 4 mps 757 mmHg 76%
    16:00 +29°C° 0.1 mm 4 mps 758 mmHg 79%
    17:00 +28°C° 0.1 mm 4 mps 758 mmHg 82%
    18:00 +27°C° 0.1 mm 3 mps 758 mmHg 85%
    19:00 +27°C° 0.1 mm 3 mps 759 mmHg 86%
    20:00 +27°C° 0.1 mm 3 mps 759 mmHg 87%
    21:00 +27°C° 0.1 mm 4 mps 760 mmHg 89%
    22:00 +27°C° 0 mm 4 mps 760 mmHg 90%
    23:00 +26°C° 0 mm 4 mps 760 mmHg 90%

    3 July, Monday

    Time Temperature Precipitation Wind Pressure Humidity
    00:00 +26°C° 0 mm 4 mps 759 mmHg 91%
    01:00 +26°C° 0 mm 4 mps 759 mmHg 91%
    02:00 +26°C° 0 mm 4 mps 759 mmHg 91%
    03:00 +26°C° 0 mm 4 mps 758 mmHg 91%
    04:00 +26°C° 0 mm 3 mps 759 mmHg 91%
    05:00 +26°C° 0 mm 3 mps 759 mmHg 91%
    06:00 +26°C° 0 mm 3 mps 760 mmHg 90%
    07:00 +27°C° 0.2 mm 3 mps 760 mmHg 85%
    08:00 +28°C° 0.2 mm 4 mps 760 mmHg 80%
    09:00 +30°C° 0.2 mm 4 mps 761 mmHg 75%
    10:00 +30°C° 1.1 mm 4 mps 760 mmHg 74%
    11:00 +30°C° 1.1 mm 4 mps 760 mmHg 73%
    12:00 +32°C° 1.1 mm 4 mps 759 mmHg 73%
    13:00 +30°C° 1.2 mm 4 mps 759 mmHg 74%
    14:00 +30°C° 1.2 mm 4 mps 758 mmHg 76%
    15:00 +29°C° 1.2 mm 4 mps 758 mmHg 78%
    16:00 +29°C° 0.2 mm 4 mps 758 mmHg 81%
    17:00 +28°C° 0.2 mm 4 mps 758 mmHg 83%
    18:00 +27°C° 0.2 mm 4 mps 758 mmHg 86%
    19:00 +27°C° 0.1 mm 4 mps 759 mmHg 87%
    20:00 +27°C° 0.1 mm 3 mps 759 mmHg 87%
    21:00 +27°C° 0.1 mm 3 mps 760 mmHg 88%
    22:00 +27°C° 0 mm 3 mps 759 mmHg 89%
    23:00 +26°C° 0 mm 4 mps 759 mmHg 89%
    Show more